Find Starlink 38173

NORAD ID: 100151 Int'l Des: 2026-171 Owner: SPXS Country: US Constellation: starlink operational

Aktuelle Ansicht

3D-Globus wird geladen...

About Starlink 38173

Starlink 38173 (NORAD 100151) is a starlink constellation satellite (v2 mini) launched Jul 24, 2026 by SPXS of US. with a mass of 575.00 kg.

Nächste Überflüge

Passes for default location (London). Set your location on the main map for personalized predictions.

Höhenverlauf

Loading altitude history...

Zweizeiliger Elementsatz

1 A0151U 26171D 26223.59065576 .00126757 00000-0 65153-3 0 9993
2 A0151 97.2835 255.2904 0001713 51.4728 308.6694 15.80862500 2697
Epoch: 11. Aug. 2026 • Age: 19 hours

Aktueller Status

Höhe 340.0 km
Apogäum / Perigäum N/A
Geschwindigkeit 7.71 km/s
Subsatellitenpunkt 79.82°N, 28.1°E
Startdatum 24. Juli 2026
Alter 18 days
Typ internet

Technische Details

Klassifizierung Payload
Masse 575.00 kg
Trockenmasse 530.00 kg
Gesamtmasse 575.00 kg
Länge 0.30 m
Durchmesser 4.10 m
Spannweite 29.00 m
Form Box + pan
Hersteller SPXS
Bus-Typ Starlink V2MO
Phasenstatus In Orbit
Besitzer/Staat SPXS/US

Most Searched